Atlanta Fulton, GA

11:08 PM EST on December 13, 2019 (GMT -0500)
Fulton County-Brown

Weather History for KFTY - August, 2019

Change the Weather History Date:

Friday, August 23, 2019

  Actual Average Record
Temperature  
Mean Temperature 84 °F 78 °F  
Max Temperature 94 °F 88 °F 99 °F (2007)
Min Temperature 74 °F 69 °F 55 °F (1997)
Cooling Degree Days 19 13  
Month to date cooling degree days 402 328  
Year to date cooling degree days 1620 1337  
Since 1 June cooling degree days 1254 1137  
Growing Degree Days 33 (Base 50)    
Moisture  
Dew Point 70 °F    
Average Humidity 65    
Maximum Humidity 85    
Minimum Humidity 44    
Precipitation  
Precipitation 0.04 in 0.15 in 1.27 in (1967)
Month to date precipitation 1.10 3.71  
Year to date precipitation 29.76 34.39  
Sea Level Pressure  
Sea Level Pressure 30.00 in    
Wind  
Wind Speed 3 mph (WSW)    
Max Wind Speed 18 mph    
Max Gust Speed 22 mph    
Visibility 10 miles    
Events Rain , Thunderstorm    
T = Trace of Precipitation, MM = Missing Value Source: NWS Daily Summary

Daily Weather History Graph

Daily Weather History Graph

Search for Another Location

Airport or City:

Astronomy

Aug. 23, 2019 Rise Set
Actual Time 7:05 AM EDT 8:15 PM EDT
Civil Twilight 6:39 AM EDT 8:41 PM EDT
Nautical Twilight 6:08 AM EDT 9:12 PM EDT
Astronomical Twilight 5:36 AM EDT 9:43 PM EDT
Moon 12:25 AM EDT (8/23) 2:20 PM EDT (8/23)
Length of Visible Light 14h 01m
Length of Day
13h 09m
Waning Gibbous, 50% of the Moon is Illuminated
Aug 23
Waning Gibbous
Aug 30
New
Sep 5
First Quarter
Sep 14
Full
Sep 21
Last Quarter

Hourly Weather History & Observations

Time (EDT) Temp. Heat Index Dew Point Humidity Pressure Visibility Wind Dir Wind Speed Gust Speed Precip Events Conditions
12:53 AM 80.1 °F 82.7 °F 68.0 °F 67% 30.01 in 10.0 mi Calm Calm - N/A   Clear
1:53 AM 79.0 °F - 68.0 °F 69% 30.01 in 10.0 mi Calm Calm - N/A   Clear
2:53 AM 79.0 °F - 68.0 °F 69% 30.00 in 10.0 mi SSW 3.5 mph - N/A   Clear
3:53 AM 78.1 °F - 69.1 °F 74% 30.00 in 10.0 mi SSW 3.5 mph - N/A   Clear
4:53 AM 77.0 °F - 69.1 °F 76% 30.00 in 10.0 mi SSW 3.5 mph - N/A   Mostly Cloudy
6:53 AM 75.9 °F - 69.1 °F 79% 30.02 in 10.0 mi Calm Calm - N/A   Clear
7:53 AM 75.9 °F - 70.0 °F 82% 30.04 in 10.0 mi Calm Calm - N/A   Clear
8:53 AM 81.0 °F 84.9 °F 71.1 °F 72% 30.04 in 10.0 mi North 3.5 mph - N/A   Clear
9:53 AM 84.0 °F 89.0 °F 71.1 °F 65% 30.05 in 10.0 mi WNW 6.9 mph - N/A   Clear
10:53 AM 87.1 °F 91.3 °F 69.1 °F 55% 30.04 in 10.0 mi SW 6.9 mph - N/A   Clear
11:53 AM 87.1 °F 89.9 °F 66.9 °F 51% 30.03 in 10.0 mi Calm Calm - N/A   Scattered Clouds
12:53 PM 91.0 °F 94.3 °F 66.9 °F 45% 30.00 in 10.0 mi SW 5.8 mph - N/A   Scattered Clouds
1:53 PM 91.0 °F 93.8 °F 66.0 °F 44% 29.98 in 10.0 mi WSW 8.1 mph - N/A   Mostly Cloudy
2:53 PM 90.0 °F 92.8 °F 66.9 °F 46% 29.96 in 10.0 mi Variable 3.5 mph - N/A   Mostly Cloudy
3:25 PM 90.0 °F 92.4 °F 66.0 °F 45% 29.98 in 10.0 mi Variable 4.6 mph - N/A Thunderstorm Mostly Cloudy
3:37 PM 89.1 °F 92.1 °F 66.9 °F 48% 29.98 in 10.0 mi NNW 12.7 mph 20.7 mph N/A Thunderstorm Thunderstorm
3:53 PM 82.9 °F 86.5 °F 69.1 °F 63% 29.97 in 10.0 mi West 10.4 mph 20.7 mph N/A Thunderstorm Thunderstorm
4:39 PM 77.0 °F - 71.1 °F 82% 30.00 in 10.0 mi West 4.6 mph - 0.02 in Rain , Thunderstorm Light Rain
4:48 PM 78.8 °F - 71.6 °F 78% 30.00 in 10.0 mi Calm Calm - 0.02 in Rain Light Rain
4:53 PM 78.1 °F - 71.1 °F 79% 29.97 in 9.0 mi Calm Calm - 0.03 in Rain Light Rain
5:53 PM 80.1 °F 84.2 °F 73.0 °F 79% 29.97 in 10.0 mi Calm Calm - 0.01 in   Overcast
6:53 PM 82.9 °F 88.8 °F 73.0 °F 72% 29.96 in 10.0 mi Calm Calm - 0.00 in   Partly Cloudy
7:53 PM 82.9 °F 90.2 °F 75.0 °F 77% 29.96 in 10.0 mi Calm Calm - N/A   Clear
9:53 PM 80.1 °F 84.5 °F 73.9 °F 81% 29.99 in 10.0 mi SSW 3.5 mph - N/A   Partly Cloudy
10:53 PM 79.0 °F - 73.9 °F 84% 30.00 in 10.0 mi SSE 6.9 mph - N/A   Scattered Clouds
11:53 PM 78.1 °F - 73.9 °F 87% 30.00 in 10.0 mi ENE 3.5 mph - N/A   Clear